Flag for China Weather past 2 weeks in Xiamen, Fujian, China

Now
84 °F

Partly sunny.


Feels Like: 90 °F
Forecast: 78 / 91 °F
Wind: 1 mph from Southeast

Location: Xiamen Airport

Current Time: Sep 22, 2014 at 10:37:14 AM

Latest Report: Sep 22, 2014 at 10:00 AM


Visibility: N/A

Pressure: 29.74 "Hg

Humidity: 66%

Dew point: 72 °F

Location of XiamenLocation

Historic Weather in Xiamen — Graph

°F

Xiamen temperature yesterday

Maximum temperature yesterday: 88 °F (at 10:00 AM)
Minimum temperature yesterday: 81 °F (at 1:00 AM)
Average temperature yesterday: 83 °F

Past Weeks' High & Low Weather Summary

 TemperatureHumidityPressure
High95 °F (Sep 8, 1:00 PM)94% (Sep 8, 5:00 AM)29.95 "Hg (Sep 8, 5:00 AM)
Low75 °F (Sep 22, 6:00 AM)47% (Sep 19, 10:00 AM)29.56 "Hg (Sep 20, 3:00 PM)
Average86 °F75%29.75 "Hg
* Reported Sep 7 9:00 AM — Sep 22 9:00 AM, Xiamen, Weather by CustomWeather, © 2014

Note: Actual official high and low records may vary slightly from our data, if they occured in-between our weather recording intervals... More about our weather records

Advertising

Xiamen weather history for previous 24 hours

 ConditionsComfort  
Time TempWeatherWind HumidityBarometerVisibility
9:00 AM
Sep 22
81 °FScattered clouds.3 mph79%29.74 "HgN/A
8:00 AM75 °FLight rain. Overcast.6 mph94%29.74 "HgN/A
7:00 AM75 °FLight rain. Overcast.6 mph94%29.74 "HgN/A
6:00 AM75 °FOvercast.3 mph94%29.71 "HgN/A
5:00 AM79 °FOvercast.6 mph74%29.71 "HgN/A
4:00 AM79 °FOvercast.1 mph79%29.68 "HgN/A
3:00 AM79 °FOvercast.3 mph79%29.68 "HgN/A
2:00 AM79 °FOvercast.3 mph74%29.68 "HgN/A
1:00 AM79 °FOvercast.6 mph79%29.68 "HgN/A
12:00 AM81 °FOvercast.3 mph74%29.68 "HgN/A
11:00 PM
Sep 21
81 °FOvercast.6 mph70%29.68 "HgN/A
10:00 PM82 °FOvercast.3 mph62%29.68 "HgN/A
9:00 PM81 °FOvercast.6 mph66%29.68 "HgN/A
8:00 PM82 °FOvercast.6 mph62%29.65 "HgN/A
7:00 PM81 °FOvercast.8 mph66%29.65 "HgN/A
6:00 PM82 °FOvercast.6 mph66%29.65 "HgN/A
5:00 PM82 °FOvercast.8 mph66%29.62 "HgN/A
4:00 PM84 °FOvercast.10 mph62%29.62 "HgN/A
3:00 PM84 °FOvercast.8 mph62%29.59 "HgN/A
2:00 PM86 °FOvercast.8 mph59%29.56 "HgN/A
1:00 PM86 °FOvercast.10 mph59%29.56 "HgN/A
12:00 PM86 °FOvercast.8 mph59%29.59 "HgN/A
11:00 AM86 °FOvercast.6 mph59%29.59 "HgN/A
10:00 AM88 °FPartly sunny.8 mph55%29.59 "HgN/A
Weather by CustomWeather, © 2014

See weather overviewHow to use our weather pages